owner,sensor,date,latitude,longitude,air_pressure(mBar),qcFlag 
WAVCIS,ioos:station:WAVCIS:CSI16:1,2008-12-09T21:00:00Z,29.4012,-89.0355,1006.997,11111222 
WAVCIS,ioos:station:WAVCIS:CSI16:1,2008-12-09T22:00:00Z,29.4012,-89.0355,1006.47,11111222 
WAVCIS,ioos:station:WAVCIS:CSI16:1,2008-12-09T23:00:00Z,29.4012,-89.0355,1005.858,11111222 
WAVCIS,ioos:station:WAVCIS:CSI16:1,2008-12-10T00:00:00Z,29.4012,-89.0355,1005.878,11111222 
WAVCIS,ioos:station:WAVCIS:CSI16:1,2008-12-10T01:00:00Z,29.4012,-89.0355,1006.359,11111222 
WAVCIS,ioos:station:WAVCIS:CSI16:1,2008-12-10T02:00:00Z,29.4012,-89.0355,1006.749,11111222 
WAVCIS,ioos:station:WAVCIS:CSI16:1,2008-12-10T03:00:00Z,29.4012,-89.0355,1007.42,11111222 
WAVCIS,ioos:station:WAVCIS:CSI16:1,2008-12-10T04:00:00Z,29.4012,-89.0355,1007.29,11111222 
WAVCIS,ioos:station:WAVCIS:CSI16:1,2008-12-10T05:00:00Z,29.4012,-89.0355,1007.34,11111222 
WAVCIS,ioos:station:WAVCIS:CSI16:1,2008-12-10T06:00:00Z,29.4012,-89.0355,1007.31,11111222 
WAVCIS,ioos:station:WAVCIS:CSI16:1,2008-12-10T07:00:00Z,29.4012,-89.0355,1006.542,11111222 
WAVCIS,ioos:station:WAVCIS:CSI16:1,2008-12-10T08:00:00Z,29.4012,-89.0355,1006.343,11111222 
WAVCIS,ioos:station:WAVCIS:CSI16:1,2008-12-10T09:00:00Z,29.4012,-89.0355,1005.483,11111222 
WAVCIS,ioos:station:WAVCIS:CSI16:1,2008-12-10T10:00:00Z,29.4012,-89.0355,1004.929,11111222 
WAVCIS,ioos:station:WAVCIS:CSI16:1,2008-12-10T11:00:00Z,29.4012,-89.0355,1004.316,11111222 
WAVCIS,ioos:station:WAVCIS:CSI16:1,2008-12-10T12:00:00Z,29.4012,-89.0355,1004.196,11111222 
WAVCIS,ioos:station:WAVCIS:CSI16:1,2008-12-10T13:00:00Z,29.4012,-89.0355,1004.875,11111222 
WAVCIS,ioos:station:WAVCIS:CSI16:1,2008-12-10T14:00:00Z,29.4012,-89.0355,1005.889,11111222 
WAVCIS,ioos:station:WAVCIS:CSI16:1,2008-12-10T15:00:00Z,29.4012,-89.0355,1006.161,11111222 
WAVCIS,ioos:station:WAVCIS:CSI16:1,2008-12-10T16:00:00Z,29.4012,-89.0355,1006.812,11111222 
WAVCIS,ioos:station:WAVCIS:CSI16:1,2008-12-10T17:00:00Z,29.4012,-89.0355,1006.63,11111222 
WAVCIS,ioos:station:WAVCIS:CSI16:1,2008-12-10T18:00:00Z,29.4012,-89.0355,1005.796,11111222 
WAVCIS,ioos:station:WAVCIS:CSI16:1,2008-12-10T19:00:00Z,29.4012,-89.0355,1005.283,11111222 
WAVCIS,ioos:station:WAVCIS:CSI16:1,2008-12-10T20:00:00Z,29.4012,-89.0355,1004.74,11111222 
WAVCIS,ioos:station:WAVCIS:CSI16:1,2008-12-10T21:00:00Z,29.4012,-89.0355,1003.378,11111222 
WAVCIS,ioos:station:WAVCIS:CSI16:1,2008-12-10T22:00:00Z,29.4012,-89.0355,1003.776,11111222 
WAVCIS,ioos:station:WAVCIS:CSI16:1,2008-12-10T23:00:00Z,29.4012,-89.0355,1003.224,11111222 
WAVCIS,ioos:station:WAVCIS:CSI16:1,2008-12-11T00:00:00Z,29.4012,-89.0355,1002.995,11111222 
WAVCIS,ioos:station:WAVCIS:CSI16:1,2008-12-11T01:00:00Z,29.4012,-89.0355,1003.661,11111222 
WAVCIS,ioos:station:WAVCIS:CSI16:1,2008-12-11T02:00:00Z,29.4012,-89.0355,1003.309,11111222 
WAVCIS,ioos:station:WAVCIS:CSI16:1,2008-12-11T03:00:00Z,29.4012,-89.0355,1003.869,11111222 
WAVCIS,ioos:station:WAVCIS:CSI16:1,2008-12-11T04:00:00Z,29.4012,-89.0355,1002.505,11111222 
WAVCIS,ioos:station:WAVCIS:CSI16:1,2008-12-11T05:00:00Z,29.4012,-89.0355,1002.865,11111222 
WAVCIS,ioos:station:WAVCIS:CSI16:1,2008-12-11T06:00:00Z,29.4012,-89.0355,1002.541,11111222 
WAVCIS,ioos:station:WAVCIS:CSI16:1,2008-12-11T07:00:00Z,29.4012,-89.0355,1002.318,11111222 
WAVCIS,ioos:station:WAVCIS:CSI16:1,2008-12-11T08:00:00Z,29.4012,-89.0355,1002.136,11111222 
WAVCIS,ioos:station:WAVCIS:CSI16:1,2008-12-11T09:00:00Z,29.4012,-89.0355,1002.03,11111222 
WAVCIS,ioos:station:WAVCIS:CSI16:1,2008-12-11T10:00:00Z,29.4012,-89.0355,1000.529,11111222 
WAVCIS,ioos:station:WAVCIS:CSI16:1,2008-12-11T11:00:00Z,29.4012,-89.0355,1000.793,11111222 
WAVCIS,ioos:station:WAVCIS:CSI16:1,2008-12-11T12:00:00Z,29.4012,-89.0355,1001.396,11111222 
WAVCIS,ioos:station:WAVCIS:CSI16:1,2008-12-11T13:00:00Z,29.4012,-89.0355,1000.819,11111222 
WAVCIS,ioos:station:WAVCIS:CSI16:1,2008-12-11T14:00:00Z,29.4012,-89.0355,1000.737,11111222 
WAVCIS,ioos:station:WAVCIS:CSI16:1,2008-12-11T15:00:00Z,29.4012,-89.0355,1001.313,11111222 
WAVCIS,ioos:station:WAVCIS:CSI16:1,2008-12-11T16:00:00Z,29.4012,-89.0355,1002.099,11111222 
WAVCIS,ioos:station:WAVCIS:CSI16:1,2008-12-11T17:00:00Z,29.4012,-89.0355,1001.21,11111222 
WAVCIS,ioos:station:WAVCIS:CSI16:1,2008-12-11T18:00:00Z,29.4012,-89.0355,1001.398,11111222 
WAVCIS,ioos:station:WAVCIS:CSI16:1,2008-12-11T19:00:00Z,29.4012,-89.0355,1001.174,11111222 
WAVCIS,ioos:station:WAVCIS:CSI16:1,2008-12-11T20:00:00Z,29.4012,-89.0355,1001.684,11111222 
WAVCIS,ioos:station:WAVCIS:CSI16:1,2008-12-11T21:00:00Z,29.4012,-89.0355,1002.263,11111222 
WAVCIS,ioos:station:WAVCIS:CSI16:1,2008-12-11T22:00:00Z,29.4012,-89.0355,1003.33,11111222 
WAVCIS,ioos:station:WAVCIS:CSI16:1,2008-12-11T23:00:00Z,29.4012,-89.0355,1004.182,11111222 
WAVCIS,ioos:station:WAVCIS:CSI16:1,2008-12-12T00:00:00Z,29.4012,-89.0355,1005.439,11111222 
WAVCIS,ioos:station:WAVCIS:CSI16:1,2008-12-12T01:00:00Z,29.4012,-89.0355,1006.742,11111222 
WAVCIS,ioos:station:WAVCIS:CSI16:1,2008-12-12T02:00:00Z,29.4012,-89.0355,1007.99,11111222 
WAVCIS,ioos:station:WAVCIS:CSI16:1,2008-12-12T03:00:00Z,29.4012,-89.0355,1008.97,11111222 
WAVCIS,ioos:station:WAVCIS:CSI16:1,2008-12-12T04:00:00Z,29.4012,-89.0355,1010.17,11111222 
WAVCIS,ioos:station:WAVCIS:CSI16:1,2008-12-12T05:00:00Z,29.4012,-89.0355,1010.86,11111222 
WAVCIS,ioos:station:WAVCIS:CSI16:1,2008-12-12T06:00:00Z,29.4012,-89.0355,1011.69,11111222 
WAVCIS,ioos:station:WAVCIS:CSI16:1,2008-12-12T07:00:00Z,29.4012,-89.0355,1012.42,11111222 
WAVCIS,ioos:station:WAVCIS:CSI16:1,2008-12-12T08:00:00Z,29.4012,-89.0355,1012.85,11111222 
WAVCIS,ioos:station:WAVCIS:CSI16:1,2008-12-12T09:00:00Z,29.4012,-89.0355,1013.7,11111222 
WAVCIS,ioos:station:WAVCIS:CSI16:1,2008-12-12T10:00:00Z,29.4012,-89.0355,1013.81,11111222 
WAVCIS,ioos:station:WAVCIS:CSI16:1,2008-12-12T11:00:00Z,29.4012,-89.0355,1014.17,11111222 
WAVCIS,ioos:station:WAVCIS:CSI16:1,2008-12-12T12:00:00Z,29.4012,-89.0355,1015.01,11111222 
WAVCIS,ioos:station:WAVCIS:CSI16:1,2008-12-12T13:00:00Z,29.4012,-89.0355,1015.49,11111222 
WAVCIS,ioos:station:WAVCIS:CSI16:1,2008-12-12T14:00:00Z,29.4012,-89.0355,1016.57,11111222 
WAVCIS,ioos:station:WAVCIS:CSI16:1,2008-12-12T15:00:00Z,29.4012,-89.0355,1017.81,11111222 
WAVCIS,ioos:station:WAVCIS:CSI16:1,2008-12-12T16:00:00Z,29.4012,-89.0355,1019.39,11111222 
WAVCIS,ioos:station:WAVCIS:CSI16:1,2008-12-12T17:00:00Z,29.4012,-89.0355,1019.52,11111222 
WAVCIS,ioos:station:WAVCIS:CSI16:1,2008-12-12T18:00:00Z,29.4012,-89.0355,1019.11,11111222 
WAVCIS,ioos:station:WAVCIS:CSI16:1,2008-12-12T19:00:00Z,29.4012,-89.0355,1018.3,11111222 
WAVCIS,ioos:station:WAVCIS:CSI16:1,2008-12-12T20:00:00Z,29.4012,-89.0355,1018.09,11111222 
WAVCIS,ioos:station:WAVCIS:CSI16:1,2008-12-12T21:00:00Z,29.4012,-89.0355,1018.3,11111222 
WAVCIS,ioos:station:WAVCIS:CSI16:1,2008-12-12T22:00:00Z,29.4012,-89.0355,1018.51,11111222 
WAVCIS,ioos:station:WAVCIS:CSI16:1,2008-12-12T23:00:00Z,29.4012,-89.0355,1018.57,11111222 
WAVCIS,ioos:station:WAVCIS:CSI16:1,2008-12-13T00:00:00Z,29.4012,-89.0355,1018.8,11111222 
WAVCIS,ioos:station:WAVCIS:CSI16:1,2008-12-13T01:00:00Z,29.4012,-89.0355,1019.2,11111222 
WAVCIS,ioos:station:WAVCIS:CSI16:1,2008-12-13T02:00:00Z,29.4012,-89.0355,1019.4,11111222 
WAVCIS,ioos:station:WAVCIS:CSI16:1,2008-12-13T03:00:00Z,29.4012,-89.0355,1019.5,11111222 
WAVCIS,ioos:station:WAVCIS:CSI16:1,2008-12-13T04:00:00Z,29.4012,-89.0355,1019.49,11111222 
WAVCIS,ioos:station:WAVCIS:CSI16:1,2008-12-13T05:00:00Z,29.4012,-89.0355,1019.38,11111222 
WAVCIS,ioos:station:WAVCIS:CSI16:1,2008-12-13T06:00:00Z,29.4012,-89.0355,1019.18,11111222 
WAVCIS,ioos:station:WAVCIS:CSI16:1,2008-12-13T07:00:00Z,29.4012,-89.0355,1019.0,11111222 
WAVCIS,ioos:station:WAVCIS:CSI16:1,2008-12-13T08:00:00Z,29.4012,-89.0355,1018.79,11111222 
WAVCIS,ioos:station:WAVCIS:CSI16:1,2008-12-13T09:00:00Z,29.4012,-89.0355,1018.56,11111222 
WAVCIS,ioos:station:WAVCIS:CSI16:1,2008-12-13T10:00:00Z,29.4012,-89.0355,1018.77,11111222 
WAVCIS,ioos:station:WAVCIS:CSI16:1,2008-12-13T11:00:00Z,29.4012,-89.0355,1018.53,11111222 
WAVCIS,ioos:station:WAVCIS:CSI16:1,2008-12-13T12:00:00Z,29.4012,-89.0355,1018.67,11111222 
WAVCIS,ioos:station:WAVCIS:CSI16:1,2008-12-13T13:00:00Z,29.4012,-89.0355,1019.15,11111222 
WAVCIS,ioos:station:WAVCIS:CSI16:1,2008-12-13T14:00:00Z,29.4012,-89.0355,1019.73,11111222 
WAVCIS,ioos:station:WAVCIS:CSI16:1,2008-12-13T15:00:00Z,29.4012,-89.0355,1020.37,11111222 
WAVCIS,ioos:station:WAVCIS:CSI16:1,2008-12-13T16:00:00Z,29.4012,-89.0355,1020.9,11111222 
WAVCIS,ioos:station:WAVCIS:CSI16:1,2008-12-13T17:00:00Z,29.4012,-89.0355,1019.71,11111222 
WAVCIS,ioos:station:WAVCIS:CSI16:1,2008-12-13T18:00:00Z,29.4012,-89.0355,1019.15,11111222 
WAVCIS,ioos:station:WAVCIS:CSI16:1,2008-12-13T19:00:00Z,29.4012,-89.0355,1018.09,11111222 
WAVCIS,ioos:station:WAVCIS:CSI16:1,2008-12-13T20:00:00Z,29.4012,-89.0355,1017.33,11111222 
WAVCIS,ioos:station:WAVCIS:CSI16:1,2008-12-13T21:00:00Z,29.4012,-89.0355,1016.87,11111222 
WAVCIS,ioos:station:WAVCIS:CSI16:1,2008-12-13T22:00:00Z,29.4012,-89.0355,1016.55,11111222 
WAVCIS,ioos:station:WAVCIS:CSI16:1,2008-12-13T23:00:00Z,29.4012,-89.0355,1016.21,11111222 
WAVCIS,ioos:station:WAVCIS:CSI16:1,2008-12-14T00:00:00Z,29.4012,-89.0355,1016.29,11111222 
WAVCIS,ioos:station:WAVCIS:CSI16:1,2008-12-14T01:00:00Z,29.4012,-89.0355,1016.33,11111222 
WAVCIS,ioos:station:WAVCIS:CSI16:1,2008-12-14T02:00:00Z,29.4012,-89.0355,1016.65,11111222 
WAVCIS,ioos:station:WAVCIS:CSI16:1,2008-12-14T03:00:00Z,29.4012,-89.0355,1016.77,11111222 
WAVCIS,ioos:station:WAVCIS:CSI16:1,2008-12-14T04:00:00Z,29.4012,-89.0355,1016.81,11111222 
WAVCIS,ioos:station:WAVCIS:CSI16:1,2008-12-14T05:00:00Z,29.4012,-89.0355,1016.23,11111222 
WAVCIS,ioos:station:WAVCIS:CSI16:1,2008-12-14T06:00:00Z,29.4012,-89.0355,1015.67,11111222 
WAVCIS,ioos:station:WAVCIS:CSI16:1,2008-12-14T07:00:00Z,29.4012,-89.0355,1015.23,11111222 
WAVCIS,ioos:station:WAVCIS:CSI16:1,2008-12-14T08:00:00Z,29.4012,-89.0355,1015.18,11111222 
WAVCIS,ioos:station:WAVCIS:CSI16:1,2008-12-14T09:00:00Z,29.4012,-89.0355,1014.94,11111222 
WAVCIS,ioos:station:WAVCIS:CSI16:1,2008-12-14T10:00:00Z,29.4012,-89.0355,1014.85,11111222 
WAVCIS,ioos:station:WAVCIS:CSI16:1,2008-12-14T11:00:00Z,29.4012,-89.0355,1014.68,11111222 
WAVCIS,ioos:station:WAVCIS:CSI16:1,2008-12-14T12:00:00Z,29.4012,-89.0355,1015.02,11111222 
WAVCIS,ioos:station:WAVCIS:CSI16:1,2008-12-14T13:00:00Z,29.4012,-89.0355,1015.58,11111222 
WAVCIS,ioos:station:WAVCIS:CSI16:1,2008-12-14T14:00:00Z,29.4012,-89.0355,1015.29,11111222 
WAVCIS,ioos:station:WAVCIS:CSI16:1,2008-12-14T15:00:00Z,29.4012,-89.0355,1016.09,11111222 
WAVCIS,ioos:station:WAVCIS:CSI16:1,2008-12-14T16:00:00Z,29.4012,-89.0355,1016.16,11111222 
WAVCIS,ioos:station:WAVCIS:CSI16:1,2008-12-14T17:00:00Z,29.4012,-89.0355,1015.85,11111222 
WAVCIS,ioos:station:WAVCIS:CSI16:1,2008-12-14T18:00:00Z,29.4012,-89.0355,1015.15,11111222 
WAVCIS,ioos:station:WAVCIS:CSI16:1,2008-12-14T19:00:00Z,29.4012,-89.0355,1014.38,11111222 
WAVCIS,ioos:station:WAVCIS:CSI16:1,2008-12-14T20:00:00Z,29.4012,-89.0355,1013.36,11111222 
WAVCIS,ioos:station:WAVCIS:CSI16:1,2008-12-14T21:00:00Z,29.4012,-89.0355,1013.59,11111222 
WAVCIS,ioos:station:WAVCIS:CSI16:1,2008-12-14T22:00:00Z,29.4012,-89.0355,1013.53,11111222 
WAVCIS,ioos:station:WAVCIS:CSI16:1,2008-12-14T23:00:00Z,29.4012,-89.0355,1013.57,11111222 
WAVCIS,ioos:station:WAVCIS:CSI16:1,2008-12-15T00:00:00Z,29.4012,-89.0355,1013.52,11111222 
WAVCIS,ioos:station:WAVCIS:CSI16:1,2008-12-15T01:00:00Z,29.4012,-89.0355,1014.12,11111222 
WAVCIS,ioos:station:WAVCIS:CSI16:1,2008-12-15T02:00:00Z,29.4012,-89.0355,1014.64,11111222 
WAVCIS,ioos:station:WAVCIS:CSI16:1,2008-12-15T03:00:00Z,29.4012,-89.0355,1014.7,11111222 
WAVCIS,ioos:station:WAVCIS:CSI16:1,2008-12-15T04:00:00Z,29.4012,-89.0355,1014.87,11111222 
WAVCIS,ioos:station:WAVCIS:CSI16:1,2008-12-15T05:00:00Z,29.4012,-89.0355,1014.56,11111222 
WAVCIS,ioos:station:WAVCIS:CSI16:1,2008-12-15T06:00:00Z,29.4012,-89.0355,1014.19,11111222 
WAVCIS,ioos:station:WAVCIS:CSI16:1,2008-12-15T07:00:00Z,29.4012,-89.0355,1013.9,11111222 
WAVCIS,ioos:station:WAVCIS:CSI16:1,2008-12-15T08:00:00Z,29.4012,-89.0355,1014.15,11111222 
WAVCIS,ioos:station:WAVCIS:CSI16:1,2008-12-15T09:00:00Z,29.4012,-89.0355,1014.51,11111222 
WAVCIS,ioos:station:WAVCIS:CSI16:1,2008-12-15T10:00:00Z,29.4012,-89.0355,1015.15,11111222 
WAVCIS,ioos:station:WAVCIS:CSI16:1,2008-12-15T11:00:00Z,29.4012,-89.0355,1015.74,11111222 
WAVCIS,ioos:station:WAVCIS:CSI16:1,2008-12-15T12:00:00Z,29.4012,-89.0355,1016.65,11111222 
WAVCIS,ioos:station:WAVCIS:CSI16:1,2008-12-15T13:00:00Z,29.4012,-89.0355,1017.16,11111222 
WAVCIS,ioos:station:WAVCIS:CSI16:1,2008-12-15T14:00:00Z,29.4012,-89.0355,1017.74,11111222 
WAVCIS,ioos:station:WAVCIS:CSI16:1,2008-12-15T15:00:00Z,29.4012,-89.0355,1018.75,11111222 
WAVCIS,ioos:station:WAVCIS:CSI16:1,2008-12-15T16:00:00Z,29.4012,-89.0355,1019.12,11111222 
WAVCIS,ioos:station:WAVCIS:CSI16:1,2008-12-15T17:00:00Z,29.4012,-89.0355,1018.66,11111222 
WAVCIS,ioos:station:WAVCIS:CSI16:1,2008-12-15T18:00:00Z,29.4012,-89.0355,1017.9,11111222 
WAVCIS,ioos:station:WAVCIS:CSI16:1,2008-12-15T19:00:00Z,29.4012,-89.0355,1017.5,11111222 
WAVCIS,ioos:station:WAVCIS:CSI16:1,2008-12-15T20:00:00Z,29.4012,-89.0355,1016.92,11111222 
WAVCIS,ioos:station:WAVCIS:CSI16:1,2008-12-15T21:00:00Z,29.4012,-89.0355,1017.37,11111222 
WAVCIS,ioos:station:WAVCIS:CSI16:1,2008-12-15T22:00:00Z,29.4012,-89.0355,1017.38,11111222 
WAVCIS,ioos:station:WAVCIS:CSI16:1,2008-12-15T23:00:00Z,29.4012,-89.0355,1017.67,11111222 
WAVCIS,ioos:station:WAVCIS:CSI16:1,2008-12-16T00:00:00Z,29.4012,-89.0355,1017.89,11111222 
WAVCIS,ioos:station:WAVCIS:CSI16:1,2008-12-16T01:00:00Z,29.4012,-89.0355,1018.15,11111222 
WAVCIS,ioos:station:WAVCIS:CSI16:1,2008-12-16T02:00:00Z,29.4012,-89.0355,1018.48,11111222 
WAVCIS,ioos:station:WAVCIS:CSI16:1,2008-12-16T03:00:00Z,29.4012,-89.0355,1018.49,11111222 
WAVCIS,ioos:station:WAVCIS:CSI16:1,2008-12-16T04:00:00Z,29.4012,-89.0355,1018.51,11111222 
WAVCIS,ioos:station:WAVCIS:CSI16:1,2008-12-16T05:00:00Z,29.4012,-89.0355,1018.28,11111222 
WAVCIS,ioos:station:WAVCIS:CSI16:1,2008-12-16T06:00:00Z,29.4012,-89.0355,1018.09,11111222 
WAVCIS,ioos:station:WAVCIS:CSI16:1,2008-12-16T07:00:00Z,29.4012,-89.0355,1017.56,11111222 
WAVCIS,ioos:station:WAVCIS:CSI16:1,2008-12-16T08:00:00Z,29.4012,-89.0355,1017.29,11111222 
WAVCIS,ioos:station:WAVCIS:CSI16:1,2008-12-16T09:00:00Z,29.4012,-89.0355,1017.06,11111222 
WAVCIS,ioos:station:WAVCIS:CSI16:1,2008-12-16T10:00:00Z,29.4012,-89.0355,1016.88,11111222 
WAVCIS,ioos:station:WAVCIS:CSI16:1,2008-12-16T11:00:00Z,29.4012,-89.0355,1016.92,11111222 
WAVCIS,ioos:station:WAVCIS:CSI16:1,2008-12-16T12:00:00Z,29.4012,-89.0355,1017.04,11111222 
WAVCIS,ioos:station:WAVCIS:CSI16:1,2008-12-16T13:00:00Z,29.4012,-89.0355,1017.39,11111222 
WAVCIS,ioos:station:WAVCIS:CSI16:1,2008-12-16T14:00:00Z,29.4012,-89.0355,1017.75,11111222 
WAVCIS,ioos:station:WAVCIS:CSI16:1,2008-12-16T15:00:00Z,29.4012,-89.0355,1018.33,11111222 
WAVCIS,ioos:station:WAVCIS:CSI16:1,2008-12-16T16:00:00Z,29.4012,-89.0355,1018.66,11111222 
WAVCIS,ioos:station:WAVCIS:CSI16:1,2008-12-16T17:00:00Z,29.4012,-89.0355,1018.48,11111222 
WAVCIS,ioos:station:WAVCIS:CSI16:1,2008-12-16T18:00:00Z,29.4012,-89.0355,1017.61,11111222 
WAVCIS,ioos:station:WAVCIS:CSI16:1,2008-12-16T19:00:00Z,29.4012,-89.0355,1016.29,11111222 
WAVCIS,ioos:station:WAVCIS:CSI16:1,2008-12-16T20:00:00Z,29.4012,-89.0355,1016.05,11111222 
WAVCIS,ioos:station:WAVCIS:CSI16:1,2008-12-16T21:00:00Z,29.4012,-89.0355,1015.99,11111222 
WAVCIS,ioos:station:WAVCIS:CSI16:1,2008-12-16T22:00:00Z,29.4012,-89.0355,1016.24,11111222 
WAVCIS,ioos:station:WAVCIS:CSI16:1,2008-12-16T23:00:00Z,29.4012,-89.0355,1015.96,11111222 
WAVCIS,ioos:station:WAVCIS:CSI16:1,2008-12-17T00:00:00Z,29.4012,-89.0355,1016.42,11111222 
WAVCIS,ioos:station:WAVCIS:CSI16:1,2008-12-17T01:00:00Z,29.4012,-89.0355,1016.62,11111222 
WAVCIS,ioos:station:WAVCIS:CSI16:1,2008-12-17T02:00:00Z,29.4012,-89.0355,1017.13,11111222 
WAVCIS,ioos:station:WAVCIS:CSI16:1,2008-12-17T03:00:00Z,29.4012,-89.0355,1016.95,11111222 
WAVCIS,ioos:station:WAVCIS:CSI16:1,2008-12-17T04:00:00Z,29.4012,-89.0355,1017.15,11111222 
WAVCIS,ioos:station:WAVCIS:CSI16:1,2008-12-17T05:00:00Z,29.4012,-89.0355,1016.9,11111222 
WAVCIS,ioos:station:WAVCIS:CSI16:1,2008-12-17T06:00:00Z,29.4012,-89.0355,1016.81,11111222 
WAVCIS,ioos:station:WAVCIS:CSI16:1,2008-12-17T07:00:00Z,29.4012,-89.0355,1016.47,11111222 
WAVCIS,ioos:station:WAVCIS:CSI16:1,2008-12-17T08:00:00Z,29.4012,-89.0355,1016.49,11111222 
WAVCIS,ioos:station:WAVCIS:CSI16:1,2008-12-17T09:00:00Z,29.4012,-89.0355,1016.83,11111222 
WAVCIS,ioos:station:WAVCIS:CSI16:1,2008-12-17T10:00:00Z,29.4012,-89.0355,1017.19,11111222 
WAVCIS,ioos:station:WAVCIS:CSI16:1,2008-12-17T11:00:00Z,29.4012,-89.0355,1017.26,11111222 
WAVCIS,ioos:station:WAVCIS:CSI16:1,2008-12-17T12:00:00Z,29.4012,-89.0355,1017.49,11111222 
WAVCIS,ioos:station:WAVCIS:CSI16:1,2008-12-17T13:00:00Z,29.4012,-89.0355,1017.83,11111222 
WAVCIS,ioos:station:WAVCIS:CSI16:1,2008-12-17T14:00:00Z,29.4012,-89.0355,1018.44,11111222 
WAVCIS,ioos:station:WAVCIS:CSI16:1,2008-12-17T15:00:00Z,29.4012,-89.0355,1019.65,11111222 
WAVCIS,ioos:station:WAVCIS:CSI16:1,2008-12-17T16:00:00Z,29.4012,-89.0355,1020.3,11111222 
WAVCIS,ioos:station:WAVCIS:CSI16:1,2008-12-17T17:00:00Z,29.4012,-89.0355,1020.28,11111222 
WAVCIS,ioos:station:WAVCIS:CSI16:1,2008-12-17T18:00:00Z,29.4012,-89.0355,1019.33,11111222 
WAVCIS,ioos:station:WAVCIS:CSI16:1,2008-12-17T19:00:00Z,29.4012,-89.0355,1018.6,11111222 
WAVCIS,ioos:station:WAVCIS:CSI16:1,2008-12-17T20:00:00Z,29.4012,-89.0355,1018.48,11111222 
WAVCIS,ioos:station:WAVCIS:CSI16:1,2008-12-17T21:00:00Z,29.4012,-89.0355,1018.19,11111222 
WAVCIS,ioos:station:WAVCIS:CSI16:1,2008-12-17T22:00:00Z,29.4012,-89.0355,1018.27,11111222 
WAVCIS,ioos:station:WAVCIS:CSI16:1,2008-12-17T23:00:00Z,29.4012,-89.0355,1018.5,11111222 
WAVCIS,ioos:station:WAVCIS:CSI16:1,2008-12-18T00:00:00Z,29.4012,-89.0355,1018.97,11111222 
WAVCIS,ioos:station:WAVCIS:CSI16:1,2008-12-18T01:00:00Z,29.4012,-89.0355,1019.36,11111222 
WAVCIS,ioos:station:WAVCIS:CSI16:1,2008-12-18T02:00:00Z,29.4012,-89.0355,1019.45,11111222 
WAVCIS,ioos:station:WAVCIS:CSI16:1,2008-12-18T03:00:00Z,29.4012,-89.0355,1019.22,11111222 
WAVCIS,ioos:station:WAVCIS:CSI16:1,2008-12-18T05:00:00Z,29.4012,-89.0355,1019.46,11111222 
WAVCIS,ioos:station:WAVCIS:CSI16:1,2008-12-18T07:00:00Z,29.4012,-89.0355,1019.55,11111222 
WAVCIS,ioos:station:WAVCIS:CSI16:1,2008-12-18T09:00:00Z,29.4012,-89.0355,1018.75,11111222 
WAVCIS,ioos:station:WAVCIS:CSI16:1,2008-12-18T11:00:00Z,29.4012,-89.0355,1019.24,11111222 
WAVCIS,ioos:station:WAVCIS:CSI16:1,2008-12-18T13:00:00Z,29.4012,-89.0355,1020.23,11111222 
WAVCIS,ioos:station:WAVCIS:CSI16:1,2008-12-18T15:00:00Z,29.4012,-89.0355,1021.99,11111222 
WAVCIS,ioos:station:WAVCIS:CSI16:1,2008-12-18T17:00:00Z,29.4012,-89.0355,1022.83,11111222 
WAVCIS,ioos:station:WAVCIS:CSI16:1,2008-12-18T18:00:00Z,29.4012,-89.0355,1021.52,11111222 
WAVCIS,ioos:station:WAVCIS:CSI16:1,2008-12-18T19:00:00Z,29.4012,-89.0355,1020.16,11111222 
WAVCIS,ioos:station:WAVCIS:CSI16:1,2008-12-18T20:00:00Z,29.4012,-89.0355,1019.61,11111222 
WAVCIS,ioos:station:WAVCIS:CSI16:1,2008-12-18T21:00:00Z,29.4012,-89.0355,1019.25,11111222 
WAVCIS,ioos:station:WAVCIS:CSI16:1,2008-12-18T22:00:00Z,29.4012,-89.0355,1019.09,11111222 
WAVCIS,ioos:station:WAVCIS:CSI16:1,2008-12-18T23:00:00Z,29.4012,-89.0355,1018.92,11111222 
WAVCIS,ioos:station:WAVCIS:CSI16:1,2008-12-19T00:00:00Z,29.4012,-89.0355,1018.83,11111222 
WAVCIS,ioos:station:WAVCIS:CSI16:1,2008-12-19T01:00:00Z,29.4012,-89.0355,1018.56,11111222 
WAVCIS,ioos:station:WAVCIS:CSI16:1,2008-12-19T02:00:00Z,29.4012,-89.0355,1018.89,11111222 
WAVCIS,ioos:station:WAVCIS:CSI16:1,2008-12-19T03:00:00Z,29.4012,-89.0355,1018.8,11111222 
WAVCIS,ioos:station:WAVCIS:CSI16:1,2008-12-19T04:00:00Z,29.4012,-89.0355,1018.66,11111222 
WAVCIS,ioos:station:WAVCIS:CSI16:1,2008-12-19T05:00:00Z,29.4012,-89.0355,1018.34,11111222 
WAVCIS,ioos:station:WAVCIS:CSI16:1,2008-12-19T06:00:00Z,29.4012,-89.0355,1017.61,11111222 
WAVCIS,ioos:station:WAVCIS:CSI16:1,2008-12-19T07:00:00Z,29.4012,-89.0355,1016.95,11111222 
WAVCIS,ioos:station:WAVCIS:CSI16:1,2008-12-19T08:00:00Z,29.4012,-89.0355,1016.98,11111222 
WAVCIS,ioos:station:WAVCIS:CSI16:1,2008-12-19T09:00:00Z,29.4012,-89.0355,1016.67,11111222 
WAVCIS,ioos:station:WAVCIS:CSI16:1,2008-12-19T10:00:00Z,29.4012,-89.0355,1016.72,11111222 
WAVCIS,ioos:station:WAVCIS:CSI16:1,2008-12-19T11:00:00Z,29.4012,-89.0355,1016.99,11111222 
WAVCIS,ioos:station:WAVCIS:CSI16:1,2008-12-19T12:00:00Z,29.4012,-89.0355,1017.21,11111222 
WAVCIS,ioos:station:WAVCIS:CSI16:1,2008-12-19T13:00:00Z,29.4012,-89.0355,1017.76,11111222 
WAVCIS,ioos:station:WAVCIS:CSI16:1,2008-12-19T14:00:00Z,29.4012,-89.0355,1017.95,11111222 
WAVCIS,ioos:station:WAVCIS:CSI16:1,2008-12-19T15:00:00Z,29.4012,-89.0355,1018.68,11111222 
WAVCIS,ioos:station:WAVCIS:CSI16:1,2008-12-19T16:00:00Z,29.4012,-89.0355,1019.15,11111222 
WAVCIS,ioos:station:WAVCIS:CSI16:1,2008-12-19T17:00:00Z,29.4012,-89.0355,1019.24,11111222 
WAVCIS,ioos:station:WAVCIS:CSI16:1,2008-12-19T18:00:00Z,29.4012,-89.0355,1018.29,11111222 
WAVCIS,ioos:station:WAVCIS:CSI16:1,2008-12-19T19:00:00Z,29.4012,-89.0355,1017.5,11111222 
WAVCIS,ioos:station:WAVCIS:CSI16:1,2008-12-19T20:00:00Z,29.4012,-89.0355,1016.86,11111222 
WAVCIS,ioos:station:WAVCIS:CSI16:1,2008-12-19T21:00:00Z,29.4012,-89.0355,1016.49,11111222 
WAVCIS,ioos:station:WAVCIS:CSI16:1,2008-12-19T22:00:00Z,29.4012,-89.0355,1016.25,11111222 
WAVCIS,ioos:station:WAVCIS:CSI16:1,2008-12-19T23:00:00Z,29.4012,-89.0355,1016.11,11111222 
WAVCIS,ioos:station:WAVCIS:CSI16:1,2008-12-20T00:00:00Z,29.4012,-89.0355,1016.07,11111222 
WAVCIS,ioos:station:WAVCIS:CSI16:1,2008-12-20T01:00:00Z,29.4012,-89.0355,1016.02,11111222 
WAVCIS,ioos:station:WAVCIS:CSI16:1,2008-12-20T02:00:00Z,29.4012,-89.0355,1015.79,11111222 
WAVCIS,ioos:station:WAVCIS:CSI16:1,2008-12-20T03:00:00Z,29.4012,-89.0355,1015.76,11111222 
WAVCIS,ioos:station:WAVCIS:CSI16:1,2008-12-20T04:00:00Z,29.4012,-89.0355,1015.62,11111222 
WAVCIS,ioos:station:WAVCIS:CSI16:1,2008-12-20T05:00:00Z,29.4012,-89.0355,1015.11,11111222 
WAVCIS,ioos:station:WAVCIS:CSI16:1,2008-12-20T06:00:00Z,29.4012,-89.0355,1014.5,11111222 
WAVCIS,ioos:station:WAVCIS:CSI16:1,2008-12-20T07:00:00Z,29.4012,-89.0355,1013.72,11111222 
WAVCIS,ioos:station:WAVCIS:CSI16:1,2008-12-20T08:00:00Z,29.4012,-89.0355,1013.32,11111222 
WAVCIS,ioos:station:WAVCIS:CSI16:1,2008-12-20T09:00:00Z,29.4012,-89.0355,1013.1,11111222 
WAVCIS,ioos:station:WAVCIS:CSI16:1,2008-12-20T10:00:00Z,29.4012,-89.0355,1012.97,11111222 
WAVCIS,ioos:station:WAVCIS:CSI16:1,2008-12-20T11:00:00Z,29.4012,-89.0355,1013.16,11111222 
WAVCIS,ioos:station:WAVCIS:CSI16:1,2008-12-20T12:00:00Z,29.4012,-89.0355,1013.29,11111222 
WAVCIS,ioos:station:WAVCIS:CSI16:1,2008-12-20T13:00:00Z,29.4012,-89.0355,1013.73,11111222 
WAVCIS,ioos:station:WAVCIS:CSI16:1,2008-12-20T14:00:00Z,29.4012,-89.0355,1014.1,11111222 
WAVCIS,ioos:station:WAVCIS:CSI16:1,2008-12-20T15:00:00Z,29.4012,-89.0355,1014.18,11111222 
WAVCIS,ioos:station:WAVCIS:CSI16:1,2008-12-20T16:00:00Z,29.4012,-89.0355,1013.84,11111222 
WAVCIS,ioos:station:WAVCIS:CSI16:1,2008-12-20T17:00:00Z,29.4012,-89.0355,1013.51,11111222 
WAVCIS,ioos:station:WAVCIS:CSI16:1,2008-12-20T18:00:00Z,29.4012,-89.0355,1012.57,11111222 
WAVCIS,ioos:station:WAVCIS:CSI16:1,2008-12-20T19:00:00Z,29.4012,-89.0355,1011.82,11111222 
WAVCIS,ioos:station:WAVCIS:CSI16:1,2008-12-20T20:00:00Z,29.4012,-89.0355,1011.37,11111222 
WAVCIS,ioos:station:WAVCIS:CSI16:1,2008-12-20T21:00:00Z,29.4012,-89.0355,1011.12,11111222 
WAVCIS,ioos:station:WAVCIS:CSI16:1,2008-12-20T22:00:00Z,29.4012,-89.0355,1010.92,11111222 
WAVCIS,ioos:station:WAVCIS:CSI16:1,2008-12-20T23:00:00Z,29.4012,-89.0355,1011.15,11111222 
WAVCIS,ioos:station:WAVCIS:CSI16:1,2008-12-21T00:00:00Z,29.4012,-89.0355,1011.13,11111222 
WAVCIS,ioos:station:WAVCIS:CSI16:1,2008-12-21T01:00:00Z,29.4012,-89.0355,1011.32,11111222 